| time (UTC) | temp F | wind direction | speed MPH | gust MPH | rain 1hr in | rain 24hr in | rain mn in | humidity % | barometer mb |
| 20260508214534 | 60 | 262 | 2.0 | 8.0 | 0.00 | 0.01 | 0.00 | 31 | 1003.8 |
| 20260508213044 | 60 | 261 | 0.0 | 4.0 | 0.00 | 0.01 | 0.00 | 31 | 1003.8 |
| 20260508211534 | 60 | 196 | 2.0 | 8.0 | 0.00 | 0.01 | 0.00 | 32 | 1004.1 |
| 20260508210032 | 60 | 252 | 1.0 | 6.0 | 0.00 | 0.01 | 0.00 | 30 | 1004.3 |
| 20260508204528 | 60 | 286 | 2.0 | 9.0 | 0.00 | 0.01 | 0.00 | 29 | 1004.4 |
| 20260508203033 | 61 | 186 | 3.0 | 9.0 | 0.00 | 0.01 | 0.00 | 28 | 1004.4 |
| 20260508201527 | 61 | 202 | 3.0 | 13.0 | 0.00 | 0.01 | 0.00 | 29 | 1004.6 |
| 20260508200028 | 61 | 186 | 2.0 | 9.0 | 0.00 | 0.01 | 0.00 | 30 | 1004.8 |
| 20260508194523 | 61 | 256 | 1.0 | 7.0 | 0.00 | 0.01 | 0.00 | 30 | 1004.9 |
| 20260508193018 | 60 | 345 | 2.0 | 10.0 | 0.00 | 0.01 | 0.00 | 31 | 1005.1 |
| 20260508191525 | 59 | 319 | 2.0 | 10.0 | 0.00 | 0.01 | 0.00 | 32 | 1005.4 |
| 20260508190014 | 59 | 333 | 3.0 | 10.0 | 0.00 | 0.01 | 0.00 | 31 | 1005.6 |
| 20260508184517 | 59 | 9 | 6.0 | 11.0 | 0.00 | 0.01 | 0.00 | 29 | 1005.8 |
| 20260508183013 | 58 | 11 | 4.0 | 10.0 | 0.00 | 0.01 | 0.00 | 31 | 1005.7 |
| 20260508181532 | 58 | 327 | 5.0 | 10.0 | 0.00 | 0.01 | 0.00 | 28 | 1005.8 |
| 20260508180009 | 59 | 343 | 3.0 | 17.0 | 0.00 | 0.01 | 0.00 | 27 | 1006.1 |
| 20260508174515 | 59 | 217 | 5.0 | 13.0 | 0.00 | 0.01 | 0.00 | 30 | 1006.1 |
| 20260508173006 | 59 | 234 | 6.0 | 14.0 | 0.00 | 0.01 | 0.00 | 29 | 1006.4 |
| 20260508171501 | 58 | 270 | 1.0 | 11.0 | 0.00 | 0.01 | 0.00 | 33 | 1006.7 |
| 20260508170100 | 58 | 196 | 1.0 | 10.0 | 0.00 | 0.01 | 0.00 | 32 | 1006.8 |
| 20260508164611 | 57 | 302 | 5.0 | 13.0 | 0.00 | 0.01 | 0.00 | 31 | 1007.0 |
| 20260508164501 | 57 | 309 | 3.0 | 13.0 | 0.00 | 0.01 | 0.00 | 32 | 1007.0 |
| 20260508163057 | 57 | 275 | 3.0 | 11.0 | 0.00 | 0.01 | 0.00 | 34 | 1007.0 |
| 20260508161554 | 56 | 246 | 2.0 | 8.0 | 0.00 | 0.01 | 0.00 | 36 | 1007.2 |
| 20260508160051 | 55 | 286 | 2.0 | 15.0 | 0.00 | 0.01 | 0.00 | 37 | 1007.4 |
| 20260508154555 | 55 | 269 | 2.0 | 8.0 | 0.00 | 0.01 | 0.00 | 37 | 1007.6 |
| 20260508153046 | 54 | 260 | 2.0 | 9.0 | 0.00 | 0.01 | 0.00 | 40 | 1007.7 |
| 20260508151543 | 53 | 252 | 3.0 | 10.0 | 0.00 | 0.01 | 0.00 | 43 | 1007.9 |
| 20260508150041 | 53 | 163 | 3.0 | 8.0 | 0.00 | 0.01 | 0.00 | 40 | 1008.0 |
| 20260508144536 | 52 | 333 | 1.0 | 8.0 | 0.00 | 0.01 | 0.00 | 44 | 1008.2 |
| 20260508143037 | 52 | 227 | 3.0 | 8.0 | 0.00 | 0.01 | 0.00 | 48 | 1008.3 |
| 20260508141545 | 50 | 199 | 3.0 | 9.0 | 0.00 | 0.01 | 0.00 | 58 | 1008.4 |
| 20260508140025 | 47 | 213 | 3.0 | 8.0 | 0.00 | 0.01 | 0.00 | 70 | 1008.6 |
| 20260508134520 | 45 | 119 | 2.0 | 5.0 | 0.00 | 0.01 | 0.00 | 75 | 1008.7 |
| 20260508133020 | 42 | 180 | 2.0 | 4.0 | 0.00 | 0.01 | 0.00 | 85 | 1008.9 |
| 20260508131512 | 38 | 124 | 1.0 | 3.0 | 0.00 | 0.01 | 0.00 | 92 | 1008.9 |
| 20260508130008 | 36 | 137 | 0.0 | 0.0 | 0.00 | 0.01 | 0.00 | 94 | 1009.1 |
| 20260508124504 | 34 | 175 | 0.0 | 0.0 | 0.00 | 0.01 | 0.00 | 95 | 1009.3 |
| 20260508123000 | 33 | 175 | 0.0 | 0.0 | 0.00 | 0.01 | 0.00 | 96 | 1009.3 |
| 20260508121610 | 33 | 175 | 0.0 | 0.0 | 0.00 | 0.01 | 0.00 | 96 | 1009.3 |
| 20260508114557 | 30 | 267 | 0.0 | 0.0 | 0.00 | 0.01 | 0.00 | 97 | 1009.2 |
| 20260508113059 | 29 | 267 | 0.0 | 0.0 | 0.00 | 0.01 | 0.00 | 97 | 1009.2 |
| 20260508111600 | 28 | 267 | 0.0 | 0.0 | 0.00 | 0.01 | 0.00 | 96 | 1009.1 |
| 20260508104553 | 27 | 275 | 0.0 | 0.0 | 0.00 | 0.01 | 0.00 | 96 | 1009.2 |
| 20260508103117 | 27 | 275 | 0.0 | 0.0 | 0.00 | 0.01 | 0.00 | 96 | 1009.3 |
| 20260508101559 | 27 | 275 | 0.0 | 0.0 | 0.00 | 0.01 | 0.00 | 96 | 1009.3 |
| 20260508100047 | 27 | 275 | 0.0 | 0.0 | 0.00 | 0.01 | 0.00 | 96 | 1009.4 |
| 20260508094603 | 27 | 275 | 0.0 | 0.0 | 0.00 | 0.01 | 0.00 | 96 | 1009.6 |
| 20260508093046 | 27 | 275 | 0.0 | 0.0 | 0.00 | 0.01 | 0.00 | 95 | 1009.6 |
| 20260508091544 | 28 | 275 | 0.0 | 0.0 | 0.00 | 0.01 | 0.00 | 96 | 1009.8 |
| 20260508090053 | 28 | 275 | 0.0 | 0.0 | 0.00 | 0.01 | 0.00 | 95 | 1009.9 |
| 20260508084540 | 28 | 275 | 0.0 | 0.0 | 0.00 | 0.01 | 0.00 | 96 | 1009.9 |
| 20260508083044 | 28 | 275 | 0.0 | 0.0 | 0.00 | 0.01 | 0.00 | 96 | 1009.9 |
| 20260508081542 | 28 | 275 | 0.0 | 0.0 | 0.00 | 0.01 | 0.00 | 95 | 1009.8 |
| 20260508080037 | 28 | 275 | 0.0 | 0.0 | 0.00 | 0.01 | 0.00 | 95 | 1009.7 |
| 20260508074538 | 28 | 275 | 0.0 | 0.0 | 0.00 | 0.01 | 0.00 | 95 | 1009.8 |
| 20260508073038 | 29 | 275 | 0.0 | 0.0 | 0.00 | 0.01 | 0.00 | 95 | 1010.0 |
| 20260508071534 | 29 | 275 | 0.0 | 0.0 | 0.00 | 0.01 | 0.00 | 95 | 1010.0 |
| 20260508070031 | 29 | 275 | 0.0 | 0.0 | 0.00 | 0.01 | 0.00 | 95 | 1010.2 |
| 20260508064538 | 29 | 242 | 0.0 | 0.0 | 0.00 | 0.01 | 0.00 | 95 | 1010.2 |
| 20260508063029 | 29 | 254 | 0.0 | 0.0 | 0.00 | 0.01 | 0.00 | 95 | 1010.3 |
| 20260508061527 | 29 | 254 | 0.0 | 0.0 | 0.00 | 0.01 | 0.00 | 95 | 1010.5 |
| 20260508060024 | 30 | 254 | 0.0 | 0.0 | 0.00 | 0.01 | 0.00 | 95 | 1010.5 |
| 20260508054524 | 30 | 254 | 0.0 | 0.0 | 0.00 | 0.01 | 0.00 | 94 | 1010.6 |
| 20260508053027 | 30 | 254 | 0.0 | 0.0 | 0.00 | 0.01 | 0.00 | 94 | 1010.7 |
| 20260508051521 | 30 | 254 | 0.0 | 0.0 | 0.00 | 0.01 | 0.00 | 94 | 1010.7 |
| 20260508050024 | 31 | 254 | 0.0 | 0.0 | 0.00 | 0.01 | 0.00 | 94 | 1010.8 |
| 20260508044517 | 31 | 254 | 0.0 | 0.0 | 0.00 | 0.01 | 0.00 | 93 | 1010.8 |
| 20260508043014 | 31 | 254 | 0.0 | 0.0 | 0.00 | 0.01 | 0.00 | 93 | 1010.9 |
| 20260508041511 | 32 | 254 | 0.0 | 0.0 | 0.00 | 0.01 | 0.00 | 93 | 1010.9 |
| 20260508040014 | 32 | 254 | 0.0 | 0.0 | 0.00 | 0.01 | 0.00 | 93 | 1010.9 |
| 20260508034507 | 32 | 176 | 0.0 | 0.0 | 0.00 | 0.01 | 0.01 | 92 | 1011.0 |
| 20260508033004 | 33 | 176 | 0.0 | 0.0 | 0.00 | 0.01 | 0.01 | 92 | 1011.1 |
| 20260508031502 | 34 | 176 | 0.0 | 0.0 | 0.00 | 0.01 | 0.01 | 91 | 1011.1 |
| 20260508030106 | 35 | 176 | 0.0 | 0.0 | 0.00 | 0.01 | 0.01 | 91 | 1011.2 |
| 20260508024556 | 36 | 158 | 0.0 | 0.0 | 0.00 | 0.01 | 0.01 | 90 | 1011.4 |
| 20260508023054 | 37 | 148 | 0.0 | 0.0 | 0.00 | 0.01 | 0.01 | 90 | 1011.4 |
| 20260508021554 | 37 | 152 | 0.0 | 3.0 | 0.00 | 0.01 | 0.01 | 90 | 1011.4 |
| 20260508020053 | 37 | 164 | 0.0 | 2.0 | 0.00 | 0.01 | 0.01 | 89 | 1011.4 |
| 20260508014554 | 38 | 236 | 1.0 | 4.0 | 0.00 | 0.01 | 0.01 | 88 | 1011.4 |
| 20260508013050 | 38 | 209 | 2.0 | 6.0 | 0.00 | 0.01 | 0.01 | 88 | 1011.3 |
| 20260508011551 | 39 | 214 | 1.0 | 5.0 | 0.01 | 0.01 | 0.01 | 86 | 1011.2 |
| 20260508010048 | 39 | 197 | 1.0 | 8.0 | 0.01 | 0.01 | 0.01 | 86 | 1011.1 |
| 20260508004547 | 40 | 238 | 1.0 | 6.0 | 0.01 | 0.01 | 0.01 | 86 | 1011.2 |
| 20260508003059 | 40 | 256 | 5.0 | 10.0 | 0.01 | 0.01 | 0.01 | 85 | 1011.2 |
| 20260508001545 | 40 | 256 | 3.0 | 11.0 | 0.00 | 0.00 | 0.00 | 83 | 1011.1 |
| 20260508000142 | 41 | 296 | 3.0 | 14.0 | 0.00 | 0.00 | 0.00 | 78 | 1011.2 |
| 20260507234542 | 43 | 300 | 5.0 | 10.0 | 0.00 | 0.00 | 0.00 | 64 | 1010.9 |
| 20260507233041 | 45 | 308 | 5.0 | 12.0 | 0.00 | 0.00 | 0.00 | 54 | 1010.5 |
| 20260507231541 | 48 | 299 | 5.0 | 10.0 | 0.00 | 0.00 | 0.00 | 43 | 1009.8 |
| 20260507230042 | 49 | 319 | 3.0 | 9.0 | 0.00 | 0.00 | 0.00 | 41 | 1009.6 |
| 20260507224557 | 50 | 344 | 4.0 | 8.0 | 0.00 | 0.00 | 0.00 | 39 | 1009.6 |
| 20260507223045 | 50 | 314 | 1.0 | 10.0 | 0.00 | 0.00 | 0.00 | 42 | 1009.7 |
| 20260507221538 | 49 | 274 | 1.0 | 10.0 | 0.00 | 0.00 | 0.00 | 40 | 1009.8 |
| 20260507220037 | 50 | 297 | 3.0 | 14.0 | 0.00 | 0.00 | 0.00 | 40 | 1009.8 |